DW1449 Weather Reports


Display with metric or nautical units.
time (UTC)temp
F
wind
direction
speed
MPH
gust
MPH
rain 1hr
in
rain 24hr
in
rain mn
in
humidity
%
barometer
mb
20260903081603 61 0.0 0.0 0.00 0.07 0.06 97 1012.3
20260903080112 61 0.0 0.0 0.00 0.07 0.06 97 1012.4
20260903074613 60 0.0 0.0 0.00 0.07 0.06 97 1012.3
20260903073106 60 0.0 0.0 0.00 0.07 0.06 98 1012.5
20260903071607 60 0.0 0.0 0.00 0.07 0.06 98 1012.6
20260903070051 60 0.0 0.0 0.00 0.07 0.06 98 1012.7
20260903064555 60 0.0 0.0 0.00 0.07 0.06 99 1012.7
20260903063054 59 0.0 0.0 0.00 0.07 0.06 98 1013.0
20260903061558 58 0.0 0.0 0.04 0.07 0.06 98 1013.1
20260903060100 57 0.0 0.0 0.05 0.06 0.05 98 1013.3
20260903054600 57 0.0 0.0 0.05 0.06 0.05 98 1013.3
20260903053054 57 0.0 0.0 0.05 0.06 0.05 98 1013.4
20260903051602 57 0.0 0.0 0.01 0.02 0.01 98 1013.5
20260903044558 57 0.0 0.0 0.00 0.00 0.00 98 1013.7
20260903043051 57 0.0 0.0 0.00 0.00 0.00 98 1013.6
20260903041558 57 0.0 0.0 0.00 0.00 0.00 98 1013.8
20260903040056 57 0.0 0.0 0.00 0.00 0.00 98 1013.9
20260903034552 57 0.0 0.0 0.00 0.00 0.00 98 1013.8
20260903033123 57 0.0 0.0 0.00 0.00 0.00 98 1013.9
20260903031632 57 0.0 0.0 0.00 0.00 0.00 97 1014.0
20260903030057 56 0.0 0.0 0.00 0.00 0.00 97 1014.2
20260903024555 56 0.0 0.0 0.00 0.01 0.00 97 1014.4
20260903023100 57 0.0 0.0 0.00 0.01 0.00 97 1014.3
20260903021555 57 0.0 0.0 0.00 0.01 0.00 97 1014.5
20260903020056 57 0.0 0.0 0.00 0.01 0.00 97 1014.7
20260903014558 56 0.0 0.0 0.00 0.01 0.00 96 1014.7
20260903013056 56 0.0 0.0 0.00 0.01 0.00 96 1014.7
20260903011558 56 0.0 0.0 0.00 0.01 0.00 96 1014.9
20260903010059 56 0.0 0.0 0.00 0.01 0.00 96 1015.0
20260903004552 56 0.0 0.0 0.00 0.01 0.00 96 1015.1
20260903003058 56 0.0 0.0 0.00 0.01 0.00 96 1015.2
20260903001604 57 0.0 0.0 0.00 0.01 0.00 97 1015.2
20260903000053 57 0.0 0.0 0.00 0.01 0.00 96 1015.2
20260902234600 57 0.0 0.0 0.00 0.01 0.00 97 1015.1
20260902233102 58 0.0 0.0 0.00 0.01 0.00 97 1015.2
20260902231559 58 0.0 0.0 0.00 0.01 0.00 97 1015.3
20260902230053 57 0.0 0.0 0.00 0.01 0.00 97 1015.3
20260902224607 57 0.0 0.0 0.00 0.01 0.00 97 1015.1
20260902223100 57 0.0 0.0 0.00 0.01 0.00 97 1015.2
20260902221557 57 0.0 0.0 0.00 0.01 0.00 97 1015.1
20260902220100 57 0.0 0.0 0.00 0.01 0.00 96 1015.2
20260902214554 57 0.0 0.0 0.00 0.01 0.01 96 1015.2
20260902213102 57 0.0 0.0 0.00 0.01 0.01 96 1015.2
20260902211603 57 0.0 0.0 0.00 0.01 0.01 96 1015.2
20260902210057 57 0.0 0.0 0.00 0.01 0.01 96 1015.4
20260902204554 58 0.0 0.0 0.00 0.05 0.01 96 1015.3
20260902203102 58 0.0 0.0 0.00 0.05 0.01 96 1015.4
20260902201557 58 0.0 0.0 0.00 0.05 0.01 96 1015.3
20260902200105 58 0.0 0.0 0.00 0.05 0.01 95 1015.1
20260902194551 58 0.0 0.0 0.00 0.05 0.01 95 1015.3
20260902193101 58 0.0 0.0 0.00 0.05 0.01 95 1015.3
20260902191557 58 0.0 0.0 0.00 0.05 0.01 94 1015.2
20260902190055 58 0.0 0.0 0.00 0.05 0.01 95 1015.1
20260902184600 58 0.0 0.0 0.00 0.05 0.01 95 1015.1
20260902183123 59 0.0 0.0 0.00 0.05 0.01 94 1015.2
20260902181557 59 0.0 0.0 0.00 0.05 0.01 93 1015.1
20260902180054 59 0.0 0.0 0.00 0.05 0.01 93 1015.1
20260902174608 60 0.0 0.0 0.00 0.05 0.01 92 1014.9
20260902173055 60 0.0 0.0 0.00 0.05 0.01 91 1015.1
20260902171603 60 0.0 0.0 0.00 0.05 0.01 90 1015.2
20260902170054 61 0.0 0.0 0.00 0.05 0.01 90 1015.3
20260902164558 61 0.0 0.0 0.00 0.05 0.01 89 1015.2
20260902163112 62 0.0 0.0 0.00 0.05 0.01 90 1015.1
20260902161556 61 0.0 0.0 0.00 0.05 0.01 90 1015.2
20260902160048 61 0.0 0.0 0.00 0.05 0.01 91 1015.1
20260902154546 61 0.0 0.0 0.00 0.05 0.01 92 1015.2
20260902153056 61 0.0 0.0 0.00 0.05 0.01 92 1015.2
20260902151557 61 0.0 0.0 0.00 0.05 0.01 91 1015.3
20260902150101 61 0.0 0.0 0.00 0.05 0.01 91 1015.2
20260902144555 61 0.0 0.0 0.00 0.05 0.01 91 1015.3
20260902143102 60 0.0 0.0 0.00 0.05 0.01 91 1015.3
20260902141552 60 0.0 0.0 0.00 0.05 0.01 88 1015.4
20260902140049 64 0.0 0.0 0.00 0.04 0.00 84 1015.3
20260902134559 64 0.0 0.0 0.00 0.04 0.00 85 1015.3
20260902133053 66 0.0 0.0 0.00 0.04 0.00 79 1015.2
20260902131558 66 0.0 0.0 0.00 0.04 0.00 78 1015.3
20260902130056 66 0.0 0.0 0.00 0.04 0.00 77 1015.3
20260902124554 66 0.0 0.0 0.00 0.04 0.00 82 1015.2
20260902123139 65 0.0 0.0 0.00 0.04 0.00 83 1015.4
20260902121602 67 0.0 0.0 0.00 0.04 0.00 76 1015.4
20260902120111 67 0.0 0.0 0.00 0.04 0.00 76 1015.4
20260902114558 68 0.0 0.0 0.00 0.04 0.00 75 1015.3
20260902113052 68 0.0 0.0 0.00 0.04 0.00 80 1015.4
20260902111601 67 0.0 0.0 0.00 0.04 0.00 80 1015.7
20260902110058 66 0.0 0.0 0.00 0.04 0.00 80 1015.6
20260902104554 66 0.0 0.0 0.00 0.04 0.00 80 1015.8
20260902103105 64 0.0 0.0 0.00 0.04 0.00 84 1015.9
20260902101549 65 0.0 0.0 0.00 0.04 0.00 82 1015.9
20260902100104 64 0.0 0.0 0.00 0.04 0.00 85 1015.8
20260902094554 64 0.0 0.0 0.00 0.04 0.00 86 1015.8
20260902093048 63 0.0 0.0 0.00 0.04 0.00 87 1015.9
20260902091555 62 0.0 0.0 0.00 0.04 0.00 91 1016.0
20260902090055 61 0.0 0.0 0.00 0.04 0.00 92 1016.1
20260902084552 61 0.0 0.0 0.00 0.04 0.00 93 1016.1
20260902083046 61 0.0 0.0 0.00 0.04 0.00 93 1016.0